Flag for U.S.A. Weather past 2 weeks in Duluth, Minnesota, U.S.A.

Now
37 °F

Overcast.


Feels Like: 28 °F
Forecast: 35 / 47 °F
Wind: 17 mph from Southwest

Location: Sky Harbor Airport

Current Time: Mar 29, 2015 at 7:32:10 AM

Latest Report: Mar 29, 2015 at 6:53 AM


Visibility: 10 mi

Pressure: 29.57 "Hg

Humidity: 70%

Dew point: 28 °F

Location of DuluthLocation

Historic Weather in Duluth — Graph

°F

Duluth temperature yesterday

Maximum temperature yesterday: 45 °F (at 2:34 PM)
Minimum temperature yesterday: 18 °F (at 7:13 AM)
Average temperature yesterday: 32 °F

Past Weeks' High & Low Weather Summary

 TemperatureHumidityPressure
High63 °F (Mar 15, 4:13 PM)100% (Mar 20, 5:53 PM)30.44 "Hg (Mar 20, 5:53 PM)
Low18 °F (Mar 21, 7:53 AM)18% (Mar 28, 4:33 PM)29.58 "Hg (Mar 29, 6:34 AM)
Average34 °F65%30.12 "Hg
* Reported Mar 14 6:13 AM — Mar 29 6:34 AM, Duluth, Weather by CustomWeather, © 2015

Note: Actual official high and low records may vary slightly from our data, if they occured in-between our weather recording intervals... More about our weather records

Advertising

Duluth weather history for previous 24 hours

 ConditionsComfort  
Time TempWeatherWind HumidityBarometerVisibility
6:34 AM
Sun, Mar 29
37 °FOvercast.23 mph70%29.58 "Hg10 mi
6:14 AM37 °FLight rain. Mostly cloudy.16 mph65%29.59 "Hg10 mi
5:53 AM37 °FLight rain. Partly cloudy.23 mph65%29.60 "Hg10 mi
5:33 AM39 °FPartly cloudy.24 mph56%29.61 "Hg10 mi
5:14 AM39 °FPassing clouds.16 mph52%29.64 "Hg10 mi
4:53 AM37 °FClear.17 mph52%29.65 "Hg10 mi
4:34 AM37 °FClear.15 mph52%29.68 "Hg10 mi
4:13 AM37 °FPassing clouds.15 mph48%29.72 "Hg10 mi
3:54 AM37 °FClear.12 mph48%29.75 "Hg10 mi
3:33 AM37 °FClear.12 mph48%29.77 "Hg10 mi
3:13 AM37 °FClear.12 mph48%29.80 "Hg10 mi
2:54 AM37 °FClear.10 mph48%29.84 "Hg10 mi
2:33 AM37 °FClear.13 mph48%29.79 "Hg10 mi
2:13 AM37 °FClear.14 mph48%29.79 "Hg10 mi
1:54 AM37 °FClear.17 mph48%29.79 "Hg10 mi
1:33 AM37 °FClear.15 mph48%29.81 "Hg10 mi
1:13 AM37 °FClear.17 mph48%29.83 "Hg10 mi
12:53 AM37 °FClear.14 mph48%29.85 "Hg10 mi
12:34 AM36 °FClear.14 mph52%29.85 "Hg10 mi
12:13 AM37 °FClear.15 mph48%29.87 "Hg10 mi
11:54 PM
Sat, Mar 28
36 °FClear.9 mph52%29.88 "Hg10 mi
11:33 PM37 °FClear.No wind48%29.90 "Hg10 mi
11:13 PM37 °FClear.13 mph48%29.92 "Hg10 mi
10:54 PM37 °FClear.9 mph48%29.93 "Hg10 mi
10:14 PM37 °FClear.15 mph45%29.95 "Hg10 mi
9:53 PM37 °FClear.17 mph41%29.96 "Hg10 mi
9:33 PM37 °FClear.15 mph41%29.97 "Hg10 mi
9:13 PM37 °FClear.14 mph45%29.98 "Hg10 mi
8:54 PM39 °FClear.13 mph42%29.98 "Hg10 mi
8:33 PM39 °FClear.17 mph39%29.99 "Hg10 mi
8:14 PM39 °FSunny.17 mph39%30.00 "Hg10 mi
7:53 PM41 °FSunny.16 mph36%30.00 "Hg10 mi
7:33 PM41 °FSunny.17 mph36%30.01 "Hg10 mi
7:14 PM43 °FSunny.15 mph31%30.01 "Hg10 mi
6:53 PM43 °FSunny.13 mph29%30.01 "Hg10 mi
6:33 PM45 °FSunny.15 mph27%30.01 "Hg10 mi
6:14 PM45 °FSunny.16 mph25%30.02 "Hg10 mi
5:53 PM45 °FSunny.15 mph23%30.03 "Hg10 mi
5:33 PM45 °FSunny.18 mph19%30.04 "Hg10 mi
5:14 PM45 °FSunny.16 mph18%30.05 "Hg10 mi
4:53 PM45 °FSunny.20 mph18%30.05 "Hg10 mi
4:33 PM45 °FSunny.18 mph18%30.06 "Hg10 mi
3:53 PM45 °FSunny.16 mph21%30.08 "Hg10 mi
3:33 PM45 °FSunny.14 mph21%30.09 "Hg10 mi
3:14 PM45 °FSunny.18 mph23%30.09 "Hg10 mi
2:53 PM45 °FSunny.8 mph23%30.11 "Hg10 mi
2:34 PM45 °FSunny.20 mph23%30.12 "Hg10 mi
2:13 PM43 °FSunny.17 mph24%30.13 "Hg10 mi
1:53 PM43 °FSunny.12 mph24%30.14 "Hg10 mi
1:34 PM43 °FSunny.12 mph22%30.16 "Hg10 mi
1:13 PM36 °FSunny.6 mph52%30.17 "Hg10 mi
12:53 PM34 °FSunny.No wind65%30.18 "Hg10 mi
12:34 PM34 °FSunny.No wind65%30.19 "Hg10 mi
12:13 PM34 °FSunny.No wind60%30.21 "Hg10 mi
11:53 AM32 °FSunny.No wind60%30.22 "Hg10 mi
11:34 AM30 °FSunny.No wind64%30.23 "Hg10 mi
11:13 AM30 °FSunny.No wind59%30.24 "Hg10 mi
10:54 AM30 °FSunny.No wind55%30.25 "Hg10 mi
10:33 AM30 °FSunny.No wind55%30.25 "Hg10 mi
10:13 AM30 °FSunny.No wind47%30.25 "Hg10 mi
9:53 AM28 °FSunny.No wind47%30.25 "Hg10 mi
9:33 AM27 °FSunny.No wind54%30.26 "Hg10 mi
9:13 AM25 °FSunny.No wind63%30.26 "Hg10 mi
8:53 AM23 °FSunny.No wind74%30.26 "Hg10 mi
8:34 AM21 °FSunny.No wind80%30.25 "Hg10 mi
8:13 AM19 °FSunny.No wind79%30.25 "Hg10 mi
7:53 AM19 °FClear.No wind79%30.26 "Hg10 mi
7:34 AM18 °FClear.No wind86%30.25 "Hg10 mi
7:13 AM18 °FClear.No wind79%30.25 "Hg10 mi
Weather by CustomWeather, © 2015

See weather overviewHow to use our weather pages